www.pogodaiklimat.ru

Погода и климат >> Архив погоды >> Беларусь >> Житковичи


ПОГОДА в Житковичах

АРХИВ ПОГОДЫ в Житковичах

Время (UTC), дата Ветер
(напр.,м/с)
 
Видим.   Явления Облачность Т
(С)
Тd
(С)
f
(%)
Тe
(С)
Тes
(С)
Комфортность P
(гПа)
Po
(гПа)
Тmin
(С)
Tmax
(С)
R
(мм)
R24
(мм)
S
(см)
18 14.05 С 2 10 км в посл. час гроза {ливн. осадки} 10/3 600 м
[Cb cap Ac trans Cs]
+14.5 +11.5 82 +14 +14 по сезону 1020.2 1003.9 +21.7 3
21 14.05 штиль 0 10 км {ливн. осадки} 9/6 600 м
[Sc Ac trans]
+13.9 +11.9 88 +13 +13 по сезону 1020.2 1003.9
00 15.05 С 2 4000 м дымка {ливн. осадки} 9/9 600 м
[Sc]
+13.2 +12.1 93 +12 +12 тепло 1018.7 1002.4
03 15.05 СВ 1 4000 м дымка 9/9 600 м
[Sc]
+13.2 +12.5 96 +13 +13 по сезону 1017.9 1001.6
06 15.05 С 1 4000 м в посл. час ливневой дождь 10/6 600 м
[Cb cap Ac und]
+13.6 +13.0 96 +14 +15 по сезону 1018.5 1002.3 +13.0 4
09 15.05 СВ 1 4000 м слаб. ливневой дождь 10/8 600 м
[Cb cap Ac und]
+15.6 +14.6 94 +16 +17 по сезону 1019.1 1002.9
12 15.05 СВ 4 10 км {ливн. осадки} 9/6 600 м
[Cb cap Ac trans]
+18.9 +17.7 93 +20 +22 тепло 1017.7 1001.7
15 15.05 В 2 4000 м слаб. ливневой дождь 10/9 600 м
[Cb cap Ac und]
+17.0 +15.9 93 +17 +17 по сезону 1018.1 1002.1
18 15.05 В 1 4000 м слаб. ливневой дождь 10/8 600 м
[Cb cap Ac und]
+15.8 +14.4 91 +16 +16 по сезону 1018.9 1002.7 +19.4 6
21 15.05 В 1 4000 м слаб. ливневой дождь 10/8 600 м
[Cb cap Ac und]
+14.6 +13.7 94 +15 +15 тепло 1019.8 1003.5
00 16.05 В 1 4000 м слаб. ливневой дождь 10/8 600 м
[Cb cap Ac und]
+13.8 +13.2 96 +14 +14 тепло 1020.2 1003.9
03 16.05 В 1 4000 м слаб. ливневой дождь 10/8 600 м
[Cb cap Ac und]
+13.8 +13.2 96 +14 +14 тепло 1018.6 1002.4
06 16.05 В 3 4000 м слаб. ливневой дождь 10/8 600 м
[Cb cap Ac und]
+14.5 +13.9 96 +13 +14 по сезону 1019.3 1003.0 +13.6 9
09 16.05 В 3 10 км в посл. час ливневой дождь 10/8 600 м
[Cb cap Ac und]
+16.8 +15.2 90 +17 +17 по сезону 1019.8 1003.6
12 16.05 В 4 10 км в посл. час ливневой дождь 10/5 600 м
[Cb cap Ac trans Ci fib]
+16.2 +15.5 96 +15 +18 прохладно 1019.5 1003.3
15 16.05 СВ 4 10 км {ливн. осадки} 10/3 600 м
[Cb cap As trans]
+16.8 +14.9 89 +16 +17 по сезону 1018.1 1002.0
18 16.05 СВ 4 4000 м дымка {ливн. осадки} 10/3 1000 м
[Cb cap As op]
+16.1 +14.9 93 +15 +15 по сезону 1017.0 1000.9 +17.0 4
21 16.05 В 4
{10}
4000 м слаб. ливневой дождь {гроза} 10/9 600 м
[Cb cap Ac und]
+16.7 +14.6 87 +16 +16 тепло 1016.3 1000.2
00 17.05 СВ 2 4000 м гроза без осадков {ливн. осадки} 10/9 600 м
[Cb cap Ac und]
+15.3 +14.8 97 +15 +15 тепло 1016.0 999.9
03 17.05 С 2 4000 м гроза, ливневой дождь 10/9 600 м
[Cb cap Ac und]
+14.7 +14.3 97 +14 +14 тепло 1016.8 1000.6
06 17.05 СВ 2 4000 м в посл. час ливневой дождь {гроза} 10/4 600 м
[Cb cap Ac As]
+15.3 +14.4 94 +15 +16 тепло 1017.0 1000.8 +14.7 24
09 17.05 В 4 10 км 10/3 600 м
[Cu hum Ac trans Cs]
+20.3 +15.6 74 +23 +27 комфорт 1015.8 999.9
12 17.05 В 4 20 км 9/3 600 м
[Cu hum Ac trans Ci fib]
+23.4 +16.2 64 +28 +32 душно 1015.0 999.3
15 17.05 В 3
{10}
20 км 9/4 600 м
[Sc Ci fib]
+23.8 +15.5 60 +27 +29 жарко 1014.9 999.2
18 17.05 В 3 10 км 9/3 600 м
[Sc Ac trans Ci fib]
+21.4 +14.8 66 +24 +24 комфорт 1015.2 999.4 +25.0
21 17.05 В 2 10 км 8/0
[Ci fib]
+17.6 +14.3 81 +18 +18 тепло 1016.1 1000.1
00 18.05 В 2 10 км 8/0
[Ac trans Ci fib]
+16.1 +13.4 84 +16 +16 тепло 1016.2 1000.1
03 18.05 В 2 10 км 9/6 600 м
[Sc Ac trans Ci fib]
+14.7 +12.3 86 +14 +14 тепло 1016.7 1000.5
06 18.05 В 2 10 км 9/5 600 м
[Cu hum Ac trans Ci fib]
+15.7 +11.4 76 +16 +18 тепло 1016.6 1000.5 +14.6
09 18.05 В 2 20 км 6/0
[Ac trans Ci fib]
+22.0 +15.0 64 +25 +36 комфорт 1015.5 999.7
12 18.05 В 4 20 км 8/0
[Ac trans Ci fib]
+24.0 +15.4 59 +27 +33 жарко 1014.3 998.6
15 18.05 В 4 20 км 9/0
[Ac trans Ci fib]
+24.2 +13.0 50 +26 +28 жарко 1013.3 997.6
18 18.05 В 1 10 км 10/0
[Ac trans Cs]
+20.2 +12.0 59 +23 +23 комфорт 1013.5 997.6 +24.9
21 18.05 В 2 10 км 10/0
[Cs]
+16.9 +9.9 63 +17 +17 тепло 1013.8 997.7
00 19.05 штиль 0 10 км 10/0
[Ac trans Cs]
+12.0 +8.4 79 +12 +12 тепло 1014.2 997.9
03 19.05 штиль 0 10 км 9/0
[Ac trans]
+10.9 +7.8 81 +10 +11 по сезону 1014.3 997.9
06 19.05 В 3 20 км 8/0
[Ci fib]
+18.0 +8.8 55 +18 +23 тепло 1013.8 997.8 +10.3
09 19.05 В 5
{10}
20 км 8/0
[Ac trans Ci fib]
+23.8 +9.0 39 +25 +30 комфорт 1013.5 997.8
12 19.05 Ю 3 20 км 8/3 1000 м
[Cb cap Ac trans Ci fib]
+25.2 +11.2 41 +26 +31 жарко 1013.6 997.9
15 19.05 В 4 20 км 8/1 1000 м
[Cu med, cong Ac trans Ci fib]
+25.0 +9.8 38 +26 +27 жарко 1012.9 997.8
18 19.05 В 1 10 км 6/4 600 м
[Sc Ac trans]
+22.4 +8.8 42 +24 +24 комфорт 1013.1 997.4 +26.7
21 19.05 В 2 10 км 5/3 600 м
[Sc Ac trans]
+18.8 +7.8 49 +20 +20 тепло 1013.9 997.9
00 20.05 В 2 10 км 6/0
[Ac trans]
+16.4 +8.4 59 +17 +17 тепло 1014.2 998.1
03 20.05 В 2 10 км 8/0
[Ac trans]
+16.0 +7.6 57 +16 +16 тепло 1014.2 998.1
06 20.05 В 3 20 км 8/0
[Ac trans Ci fib]
+19.6 +9.7 53 +21 +25 комфорт 1014.1 998.1 +16.0
09 20.05 ЮВ 4
{10}
20 км 9/0
[Ac trans Ci fib]
+24.8 +11.1 42 +26 +33 жарко 1013.9 998.2
12 20.05 В 5-10
{10}
20 км 8/0
[Ac trans Ci fib]
+27.3 +11.2 37 +28 +33 жарко 1012.9 997.4
15 20.05 В 3
{11}
20 км 8/3 600 м
[Sc Ac trans Ci fib]
+26.0 +10.7 38 +27 +29 жарко 1011.7 996.2
18 20.05 ЮВ 3
{10}
10 км 9/3 1000 м
[Cb cap Ac trans Ci fib]
+23.5 +10.0 42 +25 +25 комфорт 1011.5 995.8 +27.7
21 20.05 ЮВ 4 10 км 10/0
[Ac trans Cs]
+21.7 +10.9 50 +24 +24 комфорт 1011.8 996.1
00 21.05 ЮВ 2 10 км зарница 10/4 1000 м
[Cb cap Cs]
+18.3 +11.0 62 +19 +19 тепло 1011.1 995.2
03 21.05 В 3 10 км 10/3 1000 м
[Cb cap Cs]
+17.7 +10.6 63 +18 +18 тепло 1010.8 994.9
06 21.05 В 5-11
{11}
20 км 9/0
[Cs]
+20.3 +10.6 54 +22 +25 комфорт 1010.3 994.5 +17.2
09 21.05 В 4
{11}
10 км в посл. час ливневой дождь 10/6 600 м
[Cb cap Ac As Cs]
+19.4 +14.8 75 +21 +23 комфорт 1010.0 994.2
12 21.05 ЮВ 6-11
{11}
10 км {ливн. осадки} 9/5 600 м
[Cb cap Cs]
+22.6 +13.2 55 +26 +28 жарко 1009.0 993.3
15 21.05 СВ 3
{12}
4000 м гроза, ливневой дождь 10/9 600 м
[Cb cap Ac und]
+16.4 +13.9 85 +16 +16 по сезону 1009.8 993.8

 

Местоположение метеостанции Житковичи (Гомельская область, Беларусь): широта 52.22 долгота 27.87 высота над уровнем моря 137 м.

В архиве по умолчанию представлена погода в Житковичах за последнюю неделю. Архивные данные за месяц целиком и за предыдущие месяцы, начиная с января 2011 года, Вы можете получить, выбрав интересующий диапазон дат из раскрывающегося списка и нажав кнопку "Ввод!".


*Определитесь, кто Вы:
робот инопланетянин человек

Внимание! Время в таблицах - всемирное. Для получения местного времени необходимо прибавить поправку, которая равна 3 ч.

Смотрите также архив погоды в соседних городах и на ближайших метеорологических станциях:

Погода в Полесской (Брестская область, Беларусь) (80 км)
Погода в Октябре (Гомельская область, Беларусь) (82 км)
Погода в Мозыре (Гомельская область, Беларусь) (92 км)
Погода в Слуцке (Минская область, Беларусь) (93 км)
Погода в Олевске (Житомирская область, Украина) (112 км)
Погода в Ганцевичах (Брестская область, Беларусь) (113 км)
Погода в Овруче (Житомирская область, Украина) (118 км)
Погода в Пинске (Брестская область, Беларусь) (124 км)
Погода в Василевичах (Гомельская область, Беларусь) (134 км)
Погода в Сарнах (Ровенская область, Украина) (135 км)

Пояснения к столбцам:

Ветер - указаны скорость ветра в м/с - средняя за 10 мин, порывы в срок и между сроками (в фигурных скобках) и направление, откуда дует ветер: С - северный, СВ - северо-восточный, В - восточный, ЮВ - юго-восточный, Ю - южный, ЮЗ - юго-западный, З - западный, СЗ - северо-западный.
Видимость - горизонтальная дальность видимости в метрах или километрах. При видимости от 1 до 10 км при отсутствии осадков обычно наблюдается дымка, при ухудшении видимости до 1 км и менее - туман. В сухую погоду видимость может ухудшаться дымом, пылью или мглою.
Явления - указаны атмосферные явления, наблюдавшиеся в срок или в последний час перед сроком; фигурными скобками обозначены явления, наблюдавшиеся между сроками (за 1-3 часа до срока); квадратными скобками обозначены град или гололедные отложения с указанием их диаметра в мм.
Облачность - указаны через наклонную черту общая и нижняя облачность в баллах и высота нижней границы облаков в метрах; квадратными скобками обозначены формы облаков: Ci - перистые, Cs - перисто-слоистые, Cc - перисто-кучевые, Ac - высококучевые, As - высокослоистые, Sc - слоисто-кучевые, Ns - слоисто-дождевые, Cu - кучевые, Cb - кучево-дождевые. Подробнее классификацию облаков см. в Атласе облаков (PDF).
T - Температура воздуха - температура, измеренная на высоте 2 м над землей.
Td - Температура точки росы - температура, при понижении до которой содержащийся в воздухе водяной пар достигнет насыщения.
f - Относительная влажность воздуха - влажноcть воздуха, измеренная на высоте 2 м над землей.
Te - Эффективная температура - температура, которую ощущает одетый по сезону человек в тени. Характеристика душности погоды. При расчете учитывается влияние влажности воздуха и скорости ветра на теплоощущения человека.
Tes - Эффективная температура на солнце - температура, которую ощущает человек, с поправкой на солнечный нагрев. Характеристика знойности погоды. Зависит от высоты солнца над горизонтом, облачности и скорости ветра. Ночью, в пасмурную погоду, а также при ветре 12 м/с и более поправка равна нулю.
P - Атмосферное давление - приведенное к уровню моря атмосферное давление.
Po - Атмосферное давление - измеренное на уровне метеостанции атмосферное давление.
Tmin - Минимальная температура - минимум температуры воздуха на высоте 2 м над землей.
Tmax - Максимальная температура - максимум температуры воздуха на высоте 2 м над землей.
R - Количество осадков - Количество выпавших осадков за период времени, мм. При наведении курсора мыши на число - период времени, за который выпало указанное количество осадков.
R24 - Количество осадков - Количество выпавших осадков за 24 часа, мм.
S - Снежный покров - Высота снежного покрова, см. При наведении курсора мыши на число - состояние снежного покрова и степень покрытия местности в баллах.